Location: Palam�s
(41.8500°N, 3.1330°E)
Time: 22:01:16
(UTC+02:00)

ISS - Visible Passes

Search period start: 30 April 2025 00:00
Search period end: 10 May 2025 00:00
Orbit: 417 x 420 km, 51.6° (Epoch: 29 April)

Date Brightness Start Highest point End Pass type
(mag) Time Alt. Az. Time Alt. Az. Time Alt. Az.
30 Apr -0.3 03:00:32 11° NE 03:00:32 11° NE 03:00:39 10° NE visible
30 Apr -1.4 04:33:26 16° NW 04:34:37 18° NNW 04:37:05 10° NE visible
30 Apr -1.0 06:10:07 10° NW 06:12:22 17° N 06:14:36 10° NE visible
01 May -1.3 03:47:10 21° N 03:47:10 21° N 03:49:18 10° NE visible
01 May -1.0 05:22:10 10° NW 05:24:17 15° N 05:26:23 10° NE visible
02 May -0.5 03:00:51 14° NNE 03:00:51 14° NNE 03:01:32 10° NE visible
02 May -0.9 04:34:03 10° NW 04:36:10 15° N 04:38:16 10° NE visible
02 May -1.3 06:11:07 10° NW 06:13:51 22° NNE 06:16:34 10° ENE visible
03 May -1.1 03:47:25 16° NNW 03:48:01 16° N 03:50:15 10° NE visible
03 May -1.0 05:23:17 10° NW 05:25:45 19° NNE 05:28:13 10° ENE visible
04 May -0.7 03:01:03 16° NNE 03:01:03 16° NNE 03:02:20 10° NE visible
04 May -0.8 04:35:22 10° NW 04:37:36 16° N 04:39:51 10° NE visible
05 May -0.8 03:47:34 11° NNW 03:49:25 15° N 03:51:31 10° NE visible
05 May -1.6 05:24:01 10° NW 05:27:00 28° NNE 05:29:58 10° E visible
06 May -0.8 03:01:10 15° N 03:01:11 15° N 03:03:18 10° NE visible
06 May -1.2 04:36:09 10° NW 04:38:52 22° NNE 04:41:34 10° ENE visible
07 May -0.3 02:14:49 12° NNE 02:14:49 12° NNE 02:15:11 10° NE visible
07 May -0.9 03:48:13 10° NW 03:50:40 18° NNE 03:53:07 10° ENE visible
07 May -3.2 05:24:37 10° NW 05:27:58 60° NNE 05:31:17 10° ESE visible
08 May -0.8 03:01:28 15° NNW 03:02:24 16° N 03:04:38 10° NE visible
08 May -2.3 04:36:41 10° NW 04:39:52 39° NNE 04:43:02 10° E visible
08 May -3.2 22:56:01 10° SW 22:58:29 46° SW 22:58:29 46° SW visible
09 May -0.4 02:15:34 12° NNE 02:15:34 12° NNE 02:16:13 10° NE visible
09 May -1.6 03:48:44 10° NW 03:51:42 28° NNE 03:54:39 10° E visible
09 May -3.6 05:25:20 10° WNW 05:28:36 49° SW 05:31:50 10° SE visible
09 May -3.5 22:08:08 10° SSW 22:11:21 44° SE 22:14:35 10° ENE visible
09 May -1.8 23:45:13 10° W 23:48:13 29° NNW 23:50:02 18° NNE visible
